Overview Statistics Trail Chart Weather Telemetry Raw packets
 

This is the latest recevied weather packets stored in our database for station/object EA2MKR. If no packets are shown the sender has not sent any weather packets the latest 10 day(s).

<< 27 28 29 30 31 32 33 >>
Time Temp. Humidity Pressure Rain* Wind** Luminosity Snow
1788439946 32.78° C 25% 959.8 hPa 0 mm - - -
1788439645 32.78° C 26% 960.1 hPa 0 mm - - -
1788439346 32.78° C 25% 960.1 hPa 0 mm - - -
1788439046 32.22° C 29% 960.1 hPa 0 mm - - -
1788438745 32.22° C 28% 960.2 hPa 0 mm - - -
1788438445 31.67° C 30% 960.2 hPa 0 mm - - -
1788438145 31.67° C 30% 960.3 hPa 0 mm - - -
1788437844 31.67° C 30% 960.3 hPa 0 mm - - -
1788437545 31.67° C 31% 960.3 hPa 0 mm - - -
1788437353 31.11° C 30% 960.4 hPa 0 mm - - -
1788436944 30.56° C 32% 960.5 hPa 0 mm - - -
1788436645 30.56° C 31% 960.5 hPa 0 mm - - -
1788436344 30.56° C 32% 960.6 hPa 0 mm - - -
1788436044 30° C 31% 960.6 hPa 0 mm - - -
1788435745 30° C 32% 960.6 hPa 0 mm - - -
1788435444 30° C 31% 960.7 hPa 0 mm - - -
1788435252 29.44° C 33% 960.9 hPa 0 mm - - -
1788434854 29.44° C 36% 960.9 hPa 0 mm - - -
1788434543 29.44° C 37% 960.9 hPa 0 mm - - -
1788434243 28.89° C 37% 960.9 hPa 0 mm - - -
1788433944 28.89° C 38% 961 hPa 0 mm - - -
1788433643 28.33° C 36% 961 hPa 0 mm - - -
1788433343 28.33° C 38% 961 hPa 0 mm - - -
1788433034 28.33° C 42% 961.2 hPa 0 mm - - -
1788432731 27.78° C 42% 961.3 hPa 0 mm - - -

* Rain latest hour (hover to see other rain measurements)
** Current wind speed in m/s (hover to see current wind gust speed)